Location: Saint-Palais-sur-Mer
(45.6429°N, 1.0859°W)
Time: 21:30:32
(UTC+01:00)

ARIANE 6 FM1 Upper Stage - Visible Passes

Search period start: 18 January 2026 00:00
Search period end: 28 January 2026 00:00
Orbit: 522 x 610 km, 62.0° (Epoch: 18 January)

Date Brightness Start Highest point End Pass type
(mag) Time Alt. Az. Time Alt. Az. Time Alt. Az.
19 Jan 5.0 20:11:12 10° S 20:11:47 13° S 20:11:47 13° S visible
20 Jan 4.3 20:10:59 10° SSW 20:12:50 24° S 20:12:50 24° S visible
21 Jan 3.4 20:10:57 10° SSW 20:13:49 42° S 20:13:49 42° S visible
22 Jan 4.7 18:35:30 10° SE 18:36:43 11° ESE 18:37:56 10° E visible
22 Jan 2.7 20:11:03 10° SW 20:14:42 70° SW 20:14:42 70° SW visible
23 Jan 4.4 18:34:05 10° SSE 18:36:43 17° ESE 18:39:18 10° ENE visible
23 Jan 2.9 20:11:18 10° SW 20:15:20 61° NW 20:15:29 60° NNW visible
24 Jan 3.9 18:33:25 10° S 18:36:44 24° ESE 18:39:59 10° ENE visible
24 Jan 3.5 20:11:40 10° WSW 20:15:33 43° NW 20:16:11 39° NNW visible
25 Jan 3.4 18:33:03 10° S 18:36:47 35° ESE 18:40:27 10° ENE visible
25 Jan 4.0 20:12:09 10° WSW 20:15:49 32° NW 20:16:48 28° N visible
26 Jan 2.9 18:32:54 10° SSW 18:36:52 51° SE 18:40:46 10° NE visible
26 Jan 4.4 20:12:45 10° W 20:16:06 24° NW 20:17:21 21° N visible
27 Jan 2.6 18:32:54 10° SSW 18:36:59 76° SE 18:40:59 10° NE visible
27 Jan 4.7 20:13:28 10° W 20:16:26 19° NNW 20:17:48 17° N visible
